Data supplied by UK-AIR on 27/11/2015
All Data GMT hour ending 
Status: R =Ratified P=Provisional,P*=As supplied
,,Oxford Centre Roadside,,,,,,,,,,,,,,,,,,,,,,,
Date,time,"Nitric oxide",status,unit,"Nitrogen dioxide",status,unit,"Nitrogen oxides as nitrogen dioxide",status,unit
 
01-01-2012,01:00,,,,,,,,,
01-01-2012,02:00,9.00000,R,ugm-3,13.00000,R,ugm-3,27.00000,R,ugm-3
01-01-2012,03:00,9.00000,R,ugm-3,15.00000,R,ugm-3,29.00000,R,ugm-3
01-01-2012,04:00,9.00000,R,ugm-3,15.00000,R,ugm-3,29.00000,R,ugm-3
01-01-2012,05:00,6.00000,R,ugm-3,15.00000,R,ugm-3,25.00000,R,ugm-3
01-01-2012,06:00,4.00000,R,ugm-3,11.00000,R,ugm-3,17.00000,R,ugm-3
01-01-2012,07:00,2.00000,R,ugm-3,6.00000,R,ugm-3,10.00000,R,ugm-3
01-01-2012,08:00,4.00000,R,ugm-3,6.00000,R,ugm-3,11.00000,R,ugm-3
01-01-2012,09:00,5.00000,R,ugm-3,6.00000,R,ugm-3,13.00000,R,ugm-3
01-01-2012,10:00,5.00000,R,ugm-3,8.00000,R,ugm-3,15.00000,R,ugm-3
01-01-2012,11:00,5.00000,R,ugm-3,8.00000,R,ugm-3,15.00000,R,ugm-3
01-01-2012,12:00,6.00000,R,ugm-3,8.00000,R,ugm-3,17.00000,R,ugm-3
01-01-2012,13:00,7.00000,R,ugm-3,11.00000,R,ugm-3,23.00000,R,ugm-3
01-01-2012,14:00,9.00000,R,ugm-3,11.00000,R,ugm-3,25.00000,R,ugm-3
01-01-2012,15:00,12.00000,R,ugm-3,15.00000,R,ugm-3,34.00000,R,ugm-3
01-01-2012,16:00,10.00000,R,ugm-3,15.00000,R,ugm-3,31.00000,R,ugm-3
01-01-2012,17:00,7.00000,R,ugm-3,13.00000,R,ugm-3,25.00000,R,ugm-3
01-01-2012,18:00,6.00000,R,ugm-3,11.00000,R,ugm-3,21.00000,R,ugm-3
01-01-2012,19:00,4.00000,R,ugm-3,10.00000,R,ugm-3,15.00000,R,ugm-3
01-01-2012,20:00,5.00000,R,ugm-3,11.00000,R,ugm-3,19.00000,R,ugm-3
01-01-2012,21:00,7.00000,R,ugm-3,15.00000,R,ugm-3,27.00000,R,ugm-3
01-01-2012,22:00,10.00000,R,ugm-3,15.00000,R,ugm-3,31.00000,R,ugm-3
01-01-2012,23:00,4.00000,R,ugm-3,11.00000,R,ugm-3,17.00000,R,ugm-3
01-01-2012,24:00,4.00000,R,ugm-3,8.00000,R,ugm-3,13.00000,R,ugm-3
02-01-2012,01:00,1.00000,R,ugm-3,4.00000,R,ugm-3,6.00000,R,ugm-3
02-01-2012,02:00,1.00000,R,ugm-3,4.00000,R,ugm-3,6.00000,R,ugm-3
02-01-2012,03:00,1.00000,R,ugm-3,4.00000,R,ugm-3,6.00000,R,ugm-3
02-01-2012,04:00,1.00000,R,ugm-3,4.00000,R,ugm-3,6.00000,R,ugm-3
02-01-2012,05:00,1.00000,R,ugm-3,6.00000,R,ugm-3,8.00000,R,ugm-3
02-01-2012,06:00,2.00000,R,ugm-3,10.00000,R,ugm-3,13.00000,R,ugm-3
02-01-2012,07:00,5.00000,R,ugm-3,11.00000,R,ugm-3,19.00000,R,ugm-3
02-01-2012,08:00,6.00000,R,ugm-3,17.00000,R,ugm-3,27.00000,R,ugm-3
02-01-2012,09:00,12.00000,R,ugm-3,23.00000,R,ugm-3,42.00000,R,ugm-3
02-01-2012,10:00,17.00000,R,ugm-3,27.00000,R,ugm-3,54.00000,R,ugm-3
02-01-2012,11:00,12.00000,R,ugm-3,23.00000,R,ugm-3,42.00000,R,ugm-3
02-01-2012,12:00,20.00000,R,ugm-3,21.00000,R,ugm-3,52.00000,R,ugm-3
02-01-2012,13:00,12.00000,R,ugm-3,15.00000,R,ugm-3,34.00000,R,ugm-3
02-01-2012,14:00,10.00000,R,ugm-3,19.00000,R,ugm-3,34.00000,R,ugm-3
02-01-2012,15:00,12.00000,R,ugm-3,21.00000,R,ugm-3,40.00000,R,ugm-3
02-01-2012,16:00,12.00000,R,ugm-3,21.00000,R,ugm-3,40.00000,R,ugm-3
02-01-2012,17:00,14.00000,R,ugm-3,21.00000,R,ugm-3,42.00000,R,ugm-3
02-01-2012,18:00,12.00000,R,ugm-3,23.00000,R,ugm-3,42.00000,R,ugm-3
02-01-2012,19:00,12.00000,R,ugm-3,21.00000,R,ugm-3,40.00000,R,ugm-3
02-01-2012,20:00,7.00000,R,ugm-3,17.00000,R,ugm-3,29.00000,R,ugm-3
02-01-2012,21:00,6.00000,R,ugm-3,17.00000,R,ugm-3,27.00000,R,ugm-3
02-01-2012,22:00,11.00000,R,ugm-3,25.00000,R,ugm-3,42.00000,R,ugm-3
02-01-2012,23:00,12.00000,R,ugm-3,25.00000,R,ugm-3,44.00000,R,ugm-3
02-01-2012,24:00,2.00000,R,ugm-3,10.00000,R,ugm-3,13.00000,R,ugm-3
03-01-2012,01:00,1.00000,R,ugm-3,8.00000,R,ugm-3,10.00000,R,ugm-3
03-01-2012,02:00,1.00000,R,ugm-3,6.00000,R,ugm-3,8.00000,R,ugm-3
03-01-2012,03:00,2.00000,R,ugm-3,4.00000,R,ugm-3,8.00000,R,ugm-3
03-01-2012,04:00,1.00000,R,ugm-3,4.00000,R,ugm-3,6.00000,R,ugm-3
03-01-2012,05:00,1.00000,R,ugm-3,4.00000,R,ugm-3,6.00000,R,ugm-3
03-01-2012,06:00,2.00000,R,ugm-3,6.00000,R,ugm-3,10.00000,R,ugm-3
03-01-2012,07:00,6.00000,R,ugm-3,11.00000,R,ugm-3,21.00000,R,ugm-3
03-01-2012,08:00,5.00000,R,ugm-3,13.00000,R,ugm-3,21.00000,R,ugm-3
03-01-2012,09:00,7.00000,R,ugm-3,13.00000,R,ugm-3,25.00000,R,ugm-3
03-01-2012,10:00,6.00000,R,ugm-3,19.00000,R,ugm-3,29.00000,R,ugm-3
03-01-2012,11:00,5.00000,R,ugm-3,19.00000,R,ugm-3,27.00000,R,ugm-3
03-01-2012,12:00,10.00000,R,ugm-3,25.00000,R,ugm-3,40.00000,R,ugm-3
03-01-2012,13:00,14.00000,R,ugm-3,33.00000,R,ugm-3,54.00000,R,ugm-3
03-01-2012,14:00,15.00000,R,ugm-3,33.00000,R,ugm-3,55.00000,R,ugm-3
03-01-2012,15:00,12.00000,R,ugm-3,31.00000,R,ugm-3,50.00000,R,ugm-3
03-01-2012,16:00,19.00000,R,ugm-3,36.00000,R,ugm-3,65.00000,R,ugm-3
03-01-2012,17:00,30.00000,R,ugm-3,42.00000,R,ugm-3,88.00000,R,ugm-3
03-01-2012,18:00,36.00000,R,ugm-3,40.00000,R,ugm-3,96.00000,R,ugm-3
03-01-2012,19:00,27.00000,R,ugm-3,33.00000,R,ugm-3,75.00000,R,ugm-3
03-01-2012,20:00,12.00000,R,ugm-3,19.00000,R,ugm-3,38.00000,R,ugm-3
03-01-2012,21:00,9.00000,R,ugm-3,15.00000,R,ugm-3,29.00000,R,ugm-3
03-01-2012,22:00,11.00000,R,ugm-3,19.00000,R,ugm-3,36.00000,R,ugm-3
03-01-2012,23:00,5.00000,R,ugm-3,17.00000,R,ugm-3,25.00000,R,ugm-3
03-01-2012,24:00,4.00000,R,ugm-3,10.00000,R,ugm-3,15.00000,R,ugm-3
04-01-2012,01:00,1.00000,R,ugm-3,8.00000,R,ugm-3,10.00000,R,ugm-3
04-01-2012,02:00,1.00000,R,ugm-3,6.00000,R,ugm-3,8.00000,R,ugm-3
04-01-2012,03:00,1.00000,R,ugm-3,6.00000,R,ugm-3,8.00000,R,ugm-3
04-01-2012,04:00,1.00000,R,ugm-3,8.00000,R,ugm-3,10.00000,R,ugm-3
04-01-2012,05:00,2.00000,R,ugm-3,8.00000,R,ugm-3,11.00000,R,ugm-3
04-01-2012,06:00,11.00000,R,ugm-3,21.00000,R,ugm-3,38.00000,R,ugm-3
04-01-2012,07:00,20.00000,R,ugm-3,31.00000,R,ugm-3,61.00000,R,ugm-3
04-01-2012,08:00,44.00000,R,ugm-3,50.00000,R,ugm-3,117.00000,R,ugm-3
04-01-2012,09:00,50.00000,R,ugm-3,52.00000,R,ugm-3,128.00000,R,ugm-3
04-01-2012,10:00,37.00000,R,ugm-3,42.00000,R,ugm-3,99.00000,R,ugm-3
04-01-2012,11:00,34.00000,R,ugm-3,44.00000,R,ugm-3,96.00000,R,ugm-3
04-01-2012,12:00,25.00000,R,ugm-3,36.00000,R,ugm-3,75.00000,R,ugm-3
04-01-2012,13:00,27.00000,R,ugm-3,42.00000,R,ugm-3,84.00000,R,ugm-3
04-01-2012,14:00,22.00000,R,ugm-3,36.00000,R,ugm-3,71.00000,R,ugm-3
04-01-2012,15:00,,,,,,,,,
04-01-2012,16:00,,,,,,,,,
04-01-2012,17:00,25.00000,R,ugm-3,34.00000,R,ugm-3,73.00000,R,ugm-3
04-01-2012,18:00,19.00000,R,ugm-3,31.00000,R,ugm-3,59.00000,R,ugm-3
04-01-2012,19:00,15.00000,R,ugm-3,29.00000,R,ugm-3,52.00000,R,ugm-3
04-01-2012,20:00,9.00000,R,ugm-3,21.00000,R,ugm-3,34.00000,R,ugm-3
04-01-2012,21:00,10.00000,R,ugm-3,17.00000,R,ugm-3,33.00000,R,ugm-3
04-01-2012,22:00,7.00000,R,ugm-3,17.00000,R,ugm-3,29.00000,R,ugm-3
04-01-2012,23:00,6.00000,R,ugm-3,17.00000,R,ugm-3,27.00000,R,ugm-3
04-01-2012,24:00,6.00000,R,ugm-3,13.00000,R,ugm-3,23.00000,R,ugm-3
05-01-2012,01:00,1.00000,R,ugm-3,10.00000,R,ugm-3,11.00000,R,ugm-3
05-01-2012,02:00,1.00000,R,ugm-3,8.00000,R,ugm-3,10.00000,R,ugm-3
05-01-2012,03:00,0.00000,R,ugm-3,8.00000,R,ugm-3,8.00000,R,ugm-3
05-01-2012,04:00,0.00000,R,ugm-3,6.00000,R,ugm-3,6.00000,R,ugm-3
05-01-2012,05:00,0.00000,R,ugm-3,8.00000,R,ugm-3,8.00000,R,ugm-3
05-01-2012,06:00,4.00000,R,ugm-3,11.00000,R,ugm-3,17.00000,R,ugm-3
05-01-2012,07:00,5.00000,R,ugm-3,15.00000,R,ugm-3,23.00000,R,ugm-3
05-01-2012,08:00,10.00000,R,ugm-3,19.00000,R,ugm-3,34.00000,R,ugm-3
05-01-2012,09:00,10.00000,R,ugm-3,25.00000,R,ugm-3,40.00000,R,ugm-3
05-01-2012,10:00,11.00000,R,ugm-3,19.00000,R,ugm-3,36.00000,R,ugm-3
05-01-2012,11:00,10.00000,R,ugm-3,21.00000,R,ugm-3,36.00000,R,ugm-3
05-01-2012,12:00,11.00000,R,ugm-3,19.00000,R,ugm-3,36.00000,R,ugm-3
05-01-2012,13:00,14.00000,R,ugm-3,21.00000,R,ugm-3,42.00000,R,ugm-3
05-01-2012,14:00,15.00000,R,ugm-3,25.00000,R,ugm-3,48.00000,R,ugm-3
05-01-2012,15:00,9.00000,R,ugm-3,21.00000,R,ugm-3,34.00000,R,ugm-3
05-01-2012,16:00,10.00000,R,ugm-3,23.00000,R,ugm-3,38.00000,R,ugm-3
05-01-2012,17:00,11.00000,R,ugm-3,25.00000,R,ugm-3,42.00000,R,ugm-3
05-01-2012,18:00,20.00000,R,ugm-3,33.00000,R,ugm-3,63.00000,R,ugm-3
05-01-2012,19:00,20.00000,R,ugm-3,36.00000,R,ugm-3,67.00000,R,ugm-3
05-01-2012,20:00,15.00000,R,ugm-3,31.00000,R,ugm-3,54.00000,R,ugm-3
05-01-2012,21:00,15.00000,R,ugm-3,40.00000,R,ugm-3,63.00000,R,ugm-3
05-01-2012,22:00,10.00000,R,ugm-3,33.00000,R,ugm-3,48.00000,R,ugm-3
05-01-2012,23:00,11.00000,R,ugm-3,27.00000,R,ugm-3,44.00000,R,ugm-3
05-01-2012,24:00,6.00000,R,ugm-3,21.00000,R,ugm-3,31.00000,R,ugm-3
06-01-2012,01:00,2.00000,R,ugm-3,15.00000,R,ugm-3,19.00000,R,ugm-3
06-01-2012,02:00,2.00000,R,ugm-3,15.00000,R,ugm-3,19.00000,R,ugm-3
06-01-2012,03:00,1.00000,R,ugm-3,11.00000,R,ugm-3,13.00000,R,ugm-3
06-01-2012,04:00,2.00000,R,ugm-3,19.00000,R,ugm-3,23.00000,R,ugm-3
06-01-2012,05:00,12.00000,R,ugm-3,46.00000,R,ugm-3,65.00000,R,ugm-3
06-01-2012,06:00,30.00000,R,ugm-3,57.00000,R,ugm-3,103.00000,R,ugm-3
06-01-2012,07:00,60.00000,R,ugm-3,75.00000,R,ugm-3,166.00000,R,ugm-3
06-01-2012,08:00,99.00000,R,ugm-3,92.00000,R,ugm-3,243.00000,R,ugm-3
06-01-2012,09:00,116.00000,R,ugm-3,101.00000,R,ugm-3,279.00000,R,ugm-3
06-01-2012,10:00,61.00000,R,ugm-3,80.00000,R,ugm-3,174.00000,R,ugm-3
06-01-2012,11:00,,,,,,,,,
06-01-2012,12:00,,,,,,,,,
06-01-2012,13:00,,,,,,,,,
06-01-2012,14:00,75.00000,R,ugm-3,75.00000,R,ugm-3,189.00000,R,ugm-3
06-01-2012,15:00,64.00000,R,ugm-3,67.00000,R,ugm-3,164.00000,R,ugm-3
06-01-2012,16:00,67.00000,R,ugm-3,77.00000,R,ugm-3,180.00000,R,ugm-3
06-01-2012,17:00,64.00000,R,ugm-3,75.00000,R,ugm-3,172.00000,R,ugm-3
06-01-2012,18:00,32.00000,R,ugm-3,63.00000,R,ugm-3,113.00000,R,ugm-3
06-01-2012,19:00,27.00000,R,ugm-3,50.00000,R,ugm-3,92.00000,R,ugm-3
06-01-2012,20:00,19.00000,R,ugm-3,34.00000,R,ugm-3,63.00000,R,ugm-3
06-01-2012,21:00,16.00000,R,ugm-3,34.00000,R,ugm-3,59.00000,R,ugm-3
06-01-2012,22:00,16.00000,R,ugm-3,34.00000,R,ugm-3,59.00000,R,ugm-3
06-01-2012,23:00,12.00000,R,ugm-3,31.00000,R,ugm-3,50.00000,R,ugm-3
06-01-2012,24:00,9.00000,R,ugm-3,27.00000,R,ugm-3,40.00000,R,ugm-3
07-01-2012,01:00,7.00000,R,ugm-3,21.00000,R,ugm-3,33.00000,R,ugm-3
07-01-2012,02:00,10.00000,R,ugm-3,23.00000,R,ugm-3,38.00000,R,ugm-3
07-01-2012,03:00,11.00000,R,ugm-3,23.00000,R,ugm-3,40.00000,R,ugm-3
07-01-2012,04:00,2.00000,R,ugm-3,19.00000,R,ugm-3,23.00000,R,ugm-3
07-01-2012,05:00,0.00000,R,ugm-3,11.00000,R,ugm-3,11.00000,R,ugm-3
07-01-2012,06:00,1.00000,R,ugm-3,13.00000,R,ugm-3,15.00000,R,ugm-3
07-01-2012,07:00,4.00000,R,ugm-3,19.00000,R,ugm-3,25.00000,R,ugm-3
07-01-2012,08:00,20.00000,R,ugm-3,36.00000,R,ugm-3,67.00000,R,ugm-3
07-01-2012,09:00,29.00000,R,ugm-3,46.00000,R,ugm-3,90.00000,R,ugm-3
07-01-2012,10:00,17.00000,R,ugm-3,38.00000,R,ugm-3,65.00000,R,ugm-3
07-01-2012,11:00,20.00000,R,ugm-3,36.00000,R,ugm-3,67.00000,R,ugm-3
07-01-2012,12:00,21.00000,R,ugm-3,34.00000,R,ugm-3,67.00000,R,ugm-3
07-01-2012,13:00,19.00000,R,ugm-3,33.00000,R,ugm-3,61.00000,R,ugm-3
07-01-2012,14:00,14.00000,R,ugm-3,29.00000,R,ugm-3,50.00000,R,ugm-3
07-01-2012,15:00,24.00000,R,ugm-3,44.00000,R,ugm-3,80.00000,R,ugm-3
07-01-2012,16:00,19.00000,R,ugm-3,54.00000,R,ugm-3,82.00000,R,ugm-3
07-01-2012,17:00,30.00000,R,ugm-3,57.00000,R,ugm-3,103.00000,R,ugm-3
07-01-2012,18:00,24.00000,R,ugm-3,52.00000,R,ugm-3,88.00000,R,ugm-3
07-01-2012,19:00,10.00000,R,ugm-3,36.00000,R,ugm-3,52.00000,R,ugm-3
07-01-2012,20:00,9.00000,R,ugm-3,36.00000,R,ugm-3,50.00000,R,ugm-3
07-01-2012,21:00,7.00000,R,ugm-3,31.00000,R,ugm-3,42.00000,R,ugm-3
07-01-2012,22:00,16.00000,R,ugm-3,40.00000,R,ugm-3,65.00000,R,ugm-3
07-01-2012,23:00,29.00000,R,ugm-3,50.00000,R,ugm-3,94.00000,R,ugm-3
07-01-2012,24:00,22.00000,R,ugm-3,44.00000,R,ugm-3,78.00000,R,ugm-3
08-01-2012,01:00,7.00000,R,ugm-3,31.00000,R,ugm-3,42.00000,R,ugm-3
08-01-2012,02:00,15.00000,R,ugm-3,40.00000,R,ugm-3,63.00000,R,ugm-3
08-01-2012,03:00,12.00000,R,ugm-3,34.00000,R,ugm-3,54.00000,R,ugm-3
08-01-2012,04:00,4.00000,R,ugm-3,25.00000,R,ugm-3,31.00000,R,ugm-3
08-01-2012,05:00,0.00000,R,ugm-3,17.00000,R,ugm-3,17.00000,R,ugm-3
08-01-2012,06:00,1.00000,R,ugm-3,17.00000,R,ugm-3,19.00000,R,ugm-3
08-01-2012,07:00,5.00000,R,ugm-3,23.00000,R,ugm-3,31.00000,R,ugm-3
08-01-2012,08:00,6.00000,R,ugm-3,25.00000,R,ugm-3,34.00000,R,ugm-3
08-01-2012,09:00,14.00000,R,ugm-3,40.00000,R,ugm-3,61.00000,R,ugm-3
08-01-2012,10:00,20.00000,R,ugm-3,44.00000,R,ugm-3,75.00000,R,ugm-3
08-01-2012,11:00,27.00000,R,ugm-3,44.00000,R,ugm-3,86.00000,R,ugm-3
08-01-2012,12:00,25.00000,R,ugm-3,40.00000,R,ugm-3,78.00000,R,ugm-3
08-01-2012,13:00,11.00000,R,ugm-3,34.00000,R,ugm-3,52.00000,R,ugm-3
08-01-2012,14:00,22.00000,R,ugm-3,44.00000,R,ugm-3,78.00000,R,ugm-3
08-01-2012,15:00,41.00000,R,ugm-3,54.00000,R,ugm-3,117.00000,R,ugm-3
08-01-2012,16:00,49.00000,R,ugm-3,59.00000,R,ugm-3,134.00000,R,ugm-3
08-01-2012,17:00,47.00000,R,ugm-3,55.00000,R,ugm-3,128.00000,R,ugm-3
08-01-2012,18:00,25.00000,R,ugm-3,46.00000,R,ugm-3,84.00000,R,ugm-3
08-01-2012,19:00,34.00000,R,ugm-3,48.00000,R,ugm-3,99.00000,R,ugm-3
08-01-2012,20:00,22.00000,R,ugm-3,42.00000,R,ugm-3,77.00000,R,ugm-3
08-01-2012,21:00,22.00000,R,ugm-3,38.00000,R,ugm-3,73.00000,R,ugm-3
08-01-2012,22:00,29.00000,R,ugm-3,34.00000,R,ugm-3,78.00000,R,ugm-3
08-01-2012,23:00,14.00000,R,ugm-3,27.00000,R,ugm-3,48.00000,R,ugm-3
08-01-2012,24:00,6.00000,R,ugm-3,21.00000,R,ugm-3,31.00000,R,ugm-3
09-01-2012,01:00,5.00000,R,ugm-3,19.00000,R,ugm-3,27.00000,R,ugm-3
09-01-2012,02:00,1.00000,R,ugm-3,15.00000,R,ugm-3,17.00000,R,ugm-3
09-01-2012,03:00,2.00000,R,ugm-3,15.00000,R,ugm-3,19.00000,R,ugm-3
09-01-2012,04:00,1.00000,R,ugm-3,15.00000,R,ugm-3,17.00000,R,ugm-3
09-01-2012,05:00,7.00000,R,ugm-3,17.00000,R,ugm-3,29.00000,R,ugm-3
09-01-2012,06:00,21.00000,R,ugm-3,33.00000,R,ugm-3,65.00000,R,ugm-3
09-01-2012,07:00,55.00000,R,ugm-3,59.00000,R,ugm-3,143.00000,R,ugm-3
09-01-2012,08:00,51.00000,R,ugm-3,63.00000,R,ugm-3,142.00000,R,ugm-3
09-01-2012,09:00,62.00000,R,ugm-3,71.00000,R,ugm-3,166.00000,R,ugm-3
09-01-2012,10:00,64.00000,R,ugm-3,69.00000,R,ugm-3,166.00000,R,ugm-3
09-01-2012,11:00,55.00000,R,ugm-3,63.00000,R,ugm-3,147.00000,R,ugm-3
09-01-2012,12:00,51.00000,R,ugm-3,57.00000,R,ugm-3,136.00000,R,ugm-3
09-01-2012,13:00,55.00000,R,ugm-3,65.00000,R,ugm-3,149.00000,R,ugm-3
09-01-2012,14:00,52.00000,R,ugm-3,67.00000,R,ugm-3,147.00000,R,ugm-3
09-01-2012,15:00,47.00000,R,ugm-3,63.00000,R,ugm-3,136.00000,R,ugm-3
09-01-2012,16:00,44.00000,R,ugm-3,63.00000,R,ugm-3,130.00000,R,ugm-3
09-01-2012,17:00,82.00000,R,ugm-3,77.00000,R,ugm-3,203.00000,R,ugm-3
09-01-2012,18:00,,,,,,,,,
09-01-2012,19:00,46.00000,R,ugm-3,67.00000,R,ugm-3,138.00000,R,ugm-3
09-01-2012,20:00,40.00000,R,ugm-3,59.00000,R,ugm-3,120.00000,R,ugm-3
09-01-2012,21:00,25.00000,R,ugm-3,54.00000,R,ugm-3,92.00000,R,ugm-3
09-01-2012,22:00,42.00000,R,ugm-3,52.00000,R,ugm-3,117.00000,R,ugm-3
09-01-2012,23:00,45.00000,R,ugm-3,52.00000,R,ugm-3,120.00000,R,ugm-3
09-01-2012,24:00,17.00000,R,ugm-3,40.00000,R,ugm-3,67.00000,R,ugm-3
10-01-2012,01:00,12.00000,R,ugm-3,33.00000,R,ugm-3,52.00000,R,ugm-3
10-01-2012,02:00,11.00000,R,ugm-3,27.00000,R,ugm-3,44.00000,R,ugm-3
10-01-2012,03:00,4.00000,R,ugm-3,25.00000,R,ugm-3,31.00000,R,ugm-3
10-01-2012,04:00,2.00000,R,ugm-3,17.00000,R,ugm-3,21.00000,R,ugm-3
10-01-2012,05:00,1.00000,R,ugm-3,13.00000,R,ugm-3,15.00000,R,ugm-3
10-01-2012,06:00,11.00000,R,ugm-3,31.00000,R,ugm-3,48.00000,R,ugm-3
10-01-2012,07:00,30.00000,R,ugm-3,46.00000,R,ugm-3,92.00000,R,ugm-3
10-01-2012,08:00,54.00000,R,ugm-3,59.00000,R,ugm-3,142.00000,R,ugm-3
10-01-2012,09:00,59.00000,R,ugm-3,67.00000,R,ugm-3,157.00000,R,ugm-3
10-01-2012,10:00,81.00000,R,ugm-3,80.00000,R,ugm-3,205.00000,R,ugm-3
10-01-2012,11:00,42.00000,R,ugm-3,61.00000,R,ugm-3,126.00000,R,ugm-3
10-01-2012,12:00,39.00000,R,ugm-3,55.00000,R,ugm-3,115.00000,R,ugm-3
10-01-2012,13:00,45.00000,R,ugm-3,59.00000,R,ugm-3,128.00000,R,ugm-3
10-01-2012,14:00,70.00000,R,ugm-3,71.00000,R,ugm-3,178.00000,R,ugm-3
10-01-2012,15:00,54.00000,R,ugm-3,65.00000,R,ugm-3,147.00000,R,ugm-3
10-01-2012,16:00,57.00000,R,ugm-3,69.00000,R,ugm-3,157.00000,R,ugm-3
10-01-2012,17:00,76.00000,R,ugm-3,67.00000,R,ugm-3,184.00000,R,ugm-3
10-01-2012,18:00,76.00000,R,ugm-3,77.00000,R,ugm-3,193.00000,R,ugm-3
10-01-2012,19:00,51.00000,R,ugm-3,63.00000,R,ugm-3,142.00000,R,ugm-3
10-01-2012,20:00,26.00000,R,ugm-3,50.00000,R,ugm-3,90.00000,R,ugm-3
10-01-2012,21:00,42.00000,R,ugm-3,59.00000,R,ugm-3,124.00000,R,ugm-3
10-01-2012,22:00,41.00000,R,ugm-3,61.00000,R,ugm-3,124.00000,R,ugm-3
10-01-2012,23:00,32.00000,R,ugm-3,50.00000,R,ugm-3,99.00000,R,ugm-3
10-01-2012,24:00,20.00000,R,ugm-3,44.00000,R,ugm-3,75.00000,R,ugm-3
11-01-2012,01:00,6.00000,R,ugm-3,25.00000,R,ugm-3,34.00000,R,ugm-3
11-01-2012,02:00,5.00000,R,ugm-3,19.00000,R,ugm-3,27.00000,R,ugm-3
11-01-2012,03:00,22.00000,R,ugm-3,29.00000,R,ugm-3,63.00000,R,ugm-3
11-01-2012,04:00,6.00000,R,ugm-3,17.00000,R,ugm-3,27.00000,R,ugm-3
11-01-2012,05:00,2.00000,R,ugm-3,15.00000,R,ugm-3,19.00000,R,ugm-3
11-01-2012,06:00,52.00000,R,ugm-3,46.00000,R,ugm-3,126.00000,R,ugm-3
11-01-2012,07:00,61.00000,R,ugm-3,69.00000,R,ugm-3,163.00000,R,ugm-3
11-01-2012,08:00,69.00000,R,ugm-3,67.00000,R,ugm-3,172.00000,R,ugm-3
11-01-2012,09:00,60.00000,R,ugm-3,63.00000,R,ugm-3,155.00000,R,ugm-3
11-01-2012,10:00,72.00000,R,ugm-3,67.00000,R,ugm-3,178.00000,R,ugm-3
11-01-2012,11:00,85.00000,R,ugm-3,73.00000,R,ugm-3,203.00000,R,ugm-3
11-01-2012,12:00,72.00000,R,ugm-3,69.00000,R,ugm-3,180.00000,R,ugm-3
11-01-2012,13:00,51.00000,R,ugm-3,59.00000,R,ugm-3,138.00000,R,ugm-3
11-01-2012,14:00,47.00000,R,ugm-3,59.00000,R,ugm-3,132.00000,R,ugm-3
11-01-2012,15:00,46.00000,R,ugm-3,52.00000,R,ugm-3,122.00000,R,ugm-3
11-01-2012,16:00,65.00000,R,ugm-3,63.00000,R,ugm-3,163.00000,R,ugm-3
11-01-2012,17:00,52.00000,R,ugm-3,57.00000,R,ugm-3,138.00000,R,ugm-3
11-01-2012,18:00,49.00000,R,ugm-3,52.00000,R,ugm-3,126.00000,R,ugm-3
11-01-2012,19:00,35.00000,R,ugm-3,50.00000,R,ugm-3,103.00000,R,ugm-3
11-01-2012,20:00,31.00000,R,ugm-3,46.00000,R,ugm-3,94.00000,R,ugm-3
11-01-2012,21:00,17.00000,R,ugm-3,33.00000,R,ugm-3,59.00000,R,ugm-3
11-01-2012,22:00,26.00000,R,ugm-3,33.00000,R,ugm-3,73.00000,R,ugm-3
11-01-2012,23:00,16.00000,R,ugm-3,27.00000,R,ugm-3,52.00000,R,ugm-3
11-01-2012,24:00,10.00000,R,ugm-3,21.00000,R,ugm-3,36.00000,R,ugm-3
12-01-2012,01:00,7.00000,R,ugm-3,15.00000,R,ugm-3,27.00000,R,ugm-3
12-01-2012,02:00,1.00000,R,ugm-3,8.00000,R,ugm-3,10.00000,R,ugm-3
12-01-2012,03:00,0.00000,R,ugm-3,8.00000,R,ugm-3,8.00000,R,ugm-3
12-01-2012,04:00,1.00000,R,ugm-3,2.00000,R,ugm-3,4.00000,R,ugm-3
12-01-2012,05:00,1.00000,R,ugm-3,4.00000,R,ugm-3,6.00000,R,ugm-3
12-01-2012,06:00,12.00000,R,ugm-3,13.00000,R,ugm-3,33.00000,R,ugm-3
12-01-2012,07:00,15.00000,R,ugm-3,21.00000,R,ugm-3,44.00000,R,ugm-3
12-01-2012,08:00,22.00000,R,ugm-3,27.00000,R,ugm-3,61.00000,R,ugm-3
12-01-2012,09:00,41.00000,R,ugm-3,44.00000,R,ugm-3,107.00000,R,ugm-3
12-01-2012,10:00,41.00000,R,ugm-3,48.00000,R,ugm-3,111.00000,R,ugm-3
12-01-2012,11:00,42.00000,R,ugm-3,42.00000,R,ugm-3,107.00000,R,ugm-3
12-01-2012,12:00,31.00000,R,ugm-3,38.00000,R,ugm-3,86.00000,R,ugm-3
12-01-2012,13:00,22.00000,R,ugm-3,34.00000,R,ugm-3,69.00000,R,ugm-3
12-01-2012,14:00,21.00000,R,ugm-3,27.00000,R,ugm-3,59.00000,R,ugm-3
12-01-2012,15:00,27.00000,R,ugm-3,36.00000,R,ugm-3,78.00000,R,ugm-3
12-01-2012,16:00,35.00000,R,ugm-3,46.00000,R,ugm-3,99.00000,R,ugm-3
12-01-2012,17:00,60.00000,R,ugm-3,73.00000,R,ugm-3,164.00000,R,ugm-3
12-01-2012,18:00,64.00000,R,ugm-3,73.00000,R,ugm-3,170.00000,R,ugm-3
12-01-2012,19:00,76.00000,R,ugm-3,84.00000,R,ugm-3,201.00000,R,ugm-3
12-01-2012,20:00,87.00000,R,ugm-3,86.00000,R,ugm-3,220.00000,R,ugm-3
12-01-2012,21:00,20.00000,R,ugm-3,48.00000,R,ugm-3,78.00000,R,ugm-3
12-01-2012,22:00,15.00000,R,ugm-3,34.00000,R,ugm-3,57.00000,R,ugm-3
12-01-2012,23:00,15.00000,R,ugm-3,33.00000,R,ugm-3,55.00000,R,ugm-3
12-01-2012,24:00,26.00000,R,ugm-3,44.00000,R,ugm-3,84.00000,R,ugm-3
13-01-2012,01:00,49.00000,R,ugm-3,59.00000,R,ugm-3,134.00000,R,ugm-3
13-01-2012,02:00,14.00000,R,ugm-3,40.00000,R,ugm-3,61.00000,R,ugm-3
13-01-2012,03:00,11.00000,R,ugm-3,33.00000,R,ugm-3,50.00000,R,ugm-3
13-01-2012,04:00,6.00000,R,ugm-3,29.00000,R,ugm-3,38.00000,R,ugm-3
13-01-2012,05:00,7.00000,R,ugm-3,27.00000,R,ugm-3,38.00000,R,ugm-3
13-01-2012,06:00,79.00000,R,ugm-3,61.00000,R,ugm-3,182.00000,R,ugm-3
13-01-2012,07:00,128.00000,R,ugm-3,92.00000,R,ugm-3,289.00000,R,ugm-3
13-01-2012,08:00,107.00000,R,ugm-3,92.00000,R,ugm-3,256.00000,R,ugm-3
13-01-2012,09:00,128.00000,R,ugm-3,96.00000,R,ugm-3,293.00000,R,ugm-3
13-01-2012,10:00,141.00000,R,ugm-3,103.00000,R,ugm-3,319.00000,R,ugm-3
13-01-2012,11:00,143.00000,R,ugm-3,107.00000,R,ugm-3,327.00000,R,ugm-3
13-01-2012,12:00,155.00000,R,ugm-3,109.00000,R,ugm-3,346.00000,R,ugm-3
13-01-2012,13:00,187.00000,R,ugm-3,126.00000,R,ugm-3,413.00000,R,ugm-3
13-01-2012,14:00,152.00000,R,ugm-3,126.00000,R,ugm-3,360.00000,R,ugm-3
13-01-2012,15:00,137.00000,R,ugm-3,122.00000,R,ugm-3,333.00000,R,ugm-3
13-01-2012,16:00,210.00000,R,ugm-3,145.00000,R,ugm-3,467.00000,R,ugm-3
13-01-2012,17:00,225.00000,R,ugm-3,164.00000,R,ugm-3,509.00000,R,ugm-3
13-01-2012,18:00,252.00000,R,ugm-3,153.00000,R,ugm-3,539.00000,R,ugm-3
13-01-2012,19:00,476.00000,R,ugm-3,239.00000,R,ugm-3,970.00000,R,ugm-3
13-01-2012,20:00,476.00000,R,ugm-3,239.00000,R,ugm-3,970.00000,R,ugm-3
13-01-2012,21:00,307.00000,R,ugm-3,187.00000,R,ugm-3,658.00000,R,ugm-3
13-01-2012,22:00,276.00000,R,ugm-3,161.00000,R,ugm-3,583.00000,R,ugm-3
13-01-2012,23:00,304.00000,R,ugm-3,168.00000,R,ugm-3,635.00000,R,ugm-3
13-01-2012,24:00,269.00000,R,ugm-3,145.00000,R,ugm-3,558.00000,R,ugm-3
14-01-2012,01:00,298.00000,R,ugm-3,145.00000,R,ugm-3,602.00000,R,ugm-3
14-01-2012,02:00,241.00000,R,ugm-3,126.00000,R,ugm-3,495.00000,R,ugm-3
14-01-2012,03:00,268.00000,R,ugm-3,136.00000,R,ugm-3,547.00000,R,ugm-3
14-01-2012,04:00,183.00000,R,ugm-3,105.00000,R,ugm-3,386.00000,R,ugm-3
14-01-2012,05:00,155.00000,R,ugm-3,86.00000,R,ugm-3,323.00000,R,ugm-3
14-01-2012,06:00,160.00000,R,ugm-3,90.00000,R,ugm-3,335.00000,R,ugm-3
14-01-2012,07:00,291.00000,R,ugm-3,128.00000,R,ugm-3,574.00000,R,ugm-3
14-01-2012,08:00,354.00000,R,ugm-3,157.00000,R,ugm-3,700.00000,R,ugm-3
14-01-2012,09:00,493.00000,R,ugm-3,212.00000,R,ugm-3,968.00000,R,ugm-3
14-01-2012,10:00,432.00000,R,ugm-3,208.00000,R,ugm-3,870.00000,R,ugm-3
14-01-2012,11:00,346.00000,R,ugm-3,191.00000,R,ugm-3,721.00000,R,ugm-3
14-01-2012,12:00,304.00000,R,ugm-3,182.00000,R,ugm-3,648.00000,R,ugm-3
14-01-2012,13:00,244.00000,R,ugm-3,168.00000,R,ugm-3,543.00000,R,ugm-3
14-01-2012,14:00,296.00000,R,ugm-3,187.00000,R,ugm-3,641.00000,R,ugm-3
14-01-2012,15:00,316.00000,R,ugm-3,231.00000,R,ugm-3,715.00000,R,ugm-3
14-01-2012,16:00,306.00000,R,ugm-3,197.00000,R,ugm-3,666.00000,R,ugm-3
14-01-2012,17:00,282.00000,R,ugm-3,187.00000,R,ugm-3,620.00000,R,ugm-3
14-01-2012,18:00,283.00000,R,ugm-3,208.00000,R,ugm-3,643.00000,R,ugm-3
14-01-2012,19:00,276.00000,R,ugm-3,186.00000,R,ugm-3,608.00000,R,ugm-3
14-01-2012,20:00,177.00000,R,ugm-3,149.00000,R,ugm-3,421.00000,R,ugm-3
14-01-2012,21:00,183.00000,R,ugm-3,153.00000,R,ugm-3,434.00000,R,ugm-3
14-01-2012,22:00,205.00000,R,ugm-3,149.00000,R,ugm-3,463.00000,R,ugm-3
14-01-2012,23:00,233.00000,R,ugm-3,155.00000,R,ugm-3,513.00000,R,ugm-3
14-01-2012,24:00,195.00000,R,ugm-3,149.00000,R,ugm-3,448.00000,R,ugm-3
15-01-2012,01:00,253.00000,R,ugm-3,151.00000,R,ugm-3,539.00000,R,ugm-3
15-01-2012,02:00,216.00000,R,ugm-3,134.00000,R,ugm-3,465.00000,R,ugm-3
15-01-2012,03:00,231.00000,R,ugm-3,136.00000,R,ugm-3,490.00000,R,ugm-3
15-01-2012,04:00,123.00000,R,ugm-3,99.00000,R,ugm-3,289.00000,R,ugm-3
15-01-2012,05:00,114.00000,R,ugm-3,92.00000,R,ugm-3,266.00000,R,ugm-3
15-01-2012,06:00,70.00000,R,ugm-3,75.00000,R,ugm-3,182.00000,R,ugm-3
15-01-2012,07:00,62.00000,R,ugm-3,75.00000,R,ugm-3,170.00000,R,ugm-3
15-01-2012,08:00,96.00000,R,ugm-3,96.00000,R,ugm-3,243.00000,R,ugm-3
15-01-2012,09:00,122.00000,R,ugm-3,103.00000,R,ugm-3,291.00000,R,ugm-3
15-01-2012,10:00,85.00000,R,ugm-3,86.00000,R,ugm-3,216.00000,R,ugm-3
15-01-2012,11:00,54.00000,R,ugm-3,69.00000,R,ugm-3,151.00000,R,ugm-3
15-01-2012,12:00,46.00000,R,ugm-3,57.00000,R,ugm-3,128.00000,R,ugm-3
15-01-2012,13:00,32.00000,R,ugm-3,46.00000,R,ugm-3,96.00000,R,ugm-3
15-01-2012,14:00,64.00000,R,ugm-3,61.00000,R,ugm-3,159.00000,R,ugm-3
15-01-2012,15:00,80.00000,R,ugm-3,73.00000,R,ugm-3,195.00000,R,ugm-3
15-01-2012,16:00,107.00000,R,ugm-3,101.00000,R,ugm-3,266.00000,R,ugm-3